When you browse on this site, cookies collect data to enhance your experience and personalize the content and advertising you see.
Visit our Privacy Policy to learn more. By continuing to use the site, you agree to this use of cookies and data.
  • In Hungary
  • List of Countries
  • For 7 days
  • Water Temperature
  • Weather Map
  • News
  • Weather Widgets
  • user-avatar
    Login

    Hourly Weather Amsoldingen

    Today, 8 December, Sunday

    Time Temperature Precipitation Wind Pressure Humidity
    00:00 +4°C° 0 mm 1 mps 696 mmHg 85%
    01:00 +4°C° 0 mm 1 mps 695 mmHg 84%
    02:00 +4°C° 0 mm 1 mps 695 mmHg 81%
    03:00 +4°C° 0 mm 1 mps 695 mmHg 77%
    04:00 +4°C° 0 mm 1 mps 694 mmHg 74%
    05:00 +4°C° 0 mm 1 mps 694 mmHg 72%
    06:00 +4°C° 0 mm 1 mps 694 mmHg 70%
    07:00 +3°C° 0 mm 2 mps 694 mmHg 68%
    08:00 +4°C° 0 mm 2 mps 694 mmHg 66%
    09:00 +5°C° 0 mm 2 mps 694 mmHg 64%
    10:00 +6°C° 0 mm 2 mps 694 mmHg 63%
    11:00 +7°C° 0 mm 2 mps 694 mmHg 64%
    12:00 +8°C° 0 mm 2 mps 693 mmHg 65%
    13:00 +9°C° 0 mm 2 mps 693 mmHg 66%
    14:00 +8°C° 0 mm 2 mps 693 mmHg 66%
    15:00 +7°C° 0 mm 2 mps 692 mmHg 67%
    16:00 +6°C° 0 mm 2 mps 691 mmHg 67%
    17:00 +6°C° 0.1 mm 2 mps 691 mmHg 67%
    18:00 +6°C° 0.1 mm 2 mps 691 mmHg 67%
    19:00 +4°C° 0.1 mm 3 mps 691 mmHg 66%
    20:00 +4°C° 0.5 mm 3 mps 691 mmHg 72%
    21:00 +5°C° 0.5 mm 3 mps 691 mmHg 77%
    22:00 +5°C° 0.5 mm 3 mps 691 mmHg 82%
    23:00 +5°C° 0.8 mm 3 mps 691 mmHg 86%

    Tomorrow, 9 December, Monday

    Time Temperature Precipitation Wind Pressure Humidity
    00:00 +5°C° 0.8 mm 3 mps 690 mmHg 89%
    01:00 +5°C° 0.8 mm 3 mps 690 mmHg 92%
    02:00 +4°C° 0.6 mm 3 mps 690 mmHg 93%
    03:00 +4°C° 0.6 mm 3 mps 689 mmHg 93%
    04:00 +3°C° 0.6 mm 4 mps 689 mmHg 94%
    05:00 +3°C° 0.6 mm 4 mps 689 mmHg 93%
    06:00 +1°C° 0.6 mm 4 mps 689 mmHg 92%
    07:00 +1°C° 0.6 mm 4 mps 689 mmHg 91%
    08:00 +1°C° 0.3 mm 4 mps 689 mmHg 89%
    09:00 +1°C° 0.3 mm 4 mps 689 mmHg 88%
    10:00 +3°C° 0.3 mm 4 mps 689 mmHg 87%
    11:00 +3°C° 0.5 mm 4 mps 689 mmHg 89%
    12:00 +3°C° 0.5 mm 4 mps 689 mmHg 91%
    13:00 +2°C° 0.5 mm 5 mps 688 mmHg 93%
    14:00 +1°C° 1.2 mm 4 mps 689 mmHg 94%
    15:00 +1°C° 1.2 mm 4 mps 689 mmHg 95%
    16:00 +1°C° 1.2 mm 4 mps 689 mmHg 97%
    17:00 0°C° 1.1 mm 4 mps 690 mmHg 97%
    18:00 +1°C° 1.1 mm 3 mps 691 mmHg 97%
    19:00 +1°C° 1.1 mm 3 mps 692 mmHg 97%
    20:00 0°C° 1.7 mm 3 mps 693 mmHg 97%
    21:00 0°C° 1.7 mm 3 mps 694 mmHg 97%
    22:00 0°C° 1.7 mm 3 mps 694 mmHg 97%
    23:00 +1°C° 0.9 mm 2 mps 695 mmHg 97%

    Day after tomorrow, 10 December, Tuesday

    Time Temperature Precipitation Wind Pressure Humidity
    00:00 -1°C° 0.9 mm 2 mps 696 mmHg 96%
    01:00 -1°C° 0.9 mm 2 mps 696 mmHg 95%
    02:00 0°C° 0.3 mm 1 mps 697 mmHg 96%
    03:00 0°C° 0.3 mm 1 mps 697 mmHg 97%
    04:00 -1°C° 0.3 mm 1 mps 697 mmHg 97%
    05:00 -1°C° 0.1 mm 1 mps 698 mmHg 96%
    06:00 -2°C° 0.1 mm 1 mps 698 mmHg 95%
    07:00 -3°C° 0.1 mm 1 mps 699 mmHg 94%
    08:00 -2°C° 0 mm 1 mps 699 mmHg 90%
    09:00 -1°C° 0 mm 1 mps 699 mmHg 85%
    10:00 0°C° 0 mm 1 mps 700 mmHg 80%
    11:00 +1°C° 0 mm 1 mps 699 mmHg 77%
    12:00 +2°C° 0 mm 1 mps 699 mmHg 74%
    13:00 +2°C° 0 mm 0 mps 698 mmHg 70%
    14:00 +2°C° 0 mm 1 mps 698 mmHg 71%
    15:00 +2°C° 0 mm 1 mps 697 mmHg 73%
    16:00 +1°C° 0 mm 1 mps 696 mmHg 74%
    17:00 0°C° 0 mm 1 mps 696 mmHg 70%
    18:00 -1°C° 0 mm 1 mps 696 mmHg 66%
    19:00 -1°C° 0 mm 1 mps 696 mmHg 62%
    20:00 -1°C° 0 mm 1 mps 696 mmHg 59%
    21:00 -1°C° 0 mm 1 mps 696 mmHg 57%
    22:00 0°C° 0 mm 1 mps 696 mmHg 55%
    23:00 0°C° 0 mm 1 mps 695 mmHg 55%

    11 December, Wednesday

    Time Temperature Precipitation Wind Pressure Humidity
    00:00 0°C° 0 mm 1 mps 695 mmHg 55%
    01:00 +1°C° 0 mm 1 mps 695 mmHg 54%
    02:00 +1°C° 0 mm 1 mps 694 mmHg 54%
    03:00 +1°C° 0 mm 1 mps 694 mmHg 53%
    04:00 +1°C° 0 mm 1 mps 694 mmHg 52%
    05:00 +2°C° 0 mm 1 mps 693 mmHg 53%
    06:00 +2°C° 0 mm 1 mps 693 mmHg 53%
    07:00 +2°C° 0 mm 1 mps 693 mmHg 53%
    08:00 +3°C° 0 mm 1 mps 693 mmHg 56%
    09:00 +4°C° 0 mm 1 mps 693 mmHg 59%
    10:00 +6°C° 0 mm 1 mps 693 mmHg 61%
    11:00 +6°C° 0 mm 1 mps 692 mmHg 65%
    12:00 +7°C° 0 mm 1 mps 692 mmHg 69%
    13:00 +7°C° 0 mm 1 mps 692 mmHg 73%
    14:00 +6°C° 0.3 mm 1 mps 691 mmHg 78%
    15:00 +5°C° 0.3 mm 1 mps 691 mmHg 84%
    16:00 +4°C° 0.3 mm 1 mps 691 mmHg 90%
    17:00 +4°C° 1 mm 1 mps 691 mmHg 93%
    18:00 +4°C° 1 mm 1 mps 691 mmHg 95%
    19:00 +3°C° 1 mm 1 mps 691 mmHg 98%
    20:00 +3°C° 0.8 mm 1 mps 691 mmHg 97%
    21:00 +3°C° 0.8 mm 1 mps 691 mmHg 97%
    22:00 +2°C° 0.8 mm 1 mps 691 mmHg 97%
    23:00 +2°C° 0.2 mm 1 mps 690 mmHg 96%

    12 December, Thursday

    Time Temperature Precipitation Wind Pressure Humidity
    00:00 +1°C° 0.2 mm 1 mps 690 mmHg 96%
    01:00 +1°C° 0.2 mm 1 mps 689 mmHg 95%
    02:00 -1°C° 0.2 mm 2 mps 689 mmHg 95%
    03:00 -1°C° 0.2 mm 2 mps 689 mmHg 95%
    04:00 -2°C° 0.2 mm 2 mps 689 mmHg 95%
    05:00 -2°C° 1.1 mm 3 mps 689 mmHg 95%
    06:00 -1°C° 1.1 mm 3 mps 690 mmHg 95%
    07:00 -1°C° 1.1 mm 3 mps 691 mmHg 95%
    08:00 -1°C° 0.7 mm 3 mps 691 mmHg 94%
    09:00 -1°C° 0.7 mm 3 mps 691 mmHg 93%
    10:00 -1°C° 0.7 mm 3 mps 692 mmHg 91%
    11:00 -1°C° 0.3 mm 3 mps 692 mmHg 90%
    12:00 0°C° 0.3 mm 3 mps 691 mmHg 88%
    13:00 0°C° 0.3 mm 3 mps 691 mmHg 86%
    14:00 -1°C° 0.1 mm 3 mps 691 mmHg 88%
    15:00 -1°C° 0.1 mm 2 mps 691 mmHg 89%
    16:00 -2°C° 0.1 mm 2 mps 691 mmHg 91%
    17:00 -2°C° 0 mm 2 mps 691 mmHg 89%
    18:00 -3°C° 0 mm 2 mps 691 mmHg 88%
    19:00 -4°C° 0 mm 3 mps 691 mmHg 86%
    20:00 -4°C° 0 mm 3 mps 690 mmHg 84%
    21:00 -4°C° 0 mm 3 mps 690 mmHg 83%
    22:00 -4°C° 0 mm 3 mps 689 mmHg 81%
    23:00 -2°C° 0.1 mm 3 mps 688 mmHg 83%

    13 December, Friday

    Time Temperature Precipitation Wind Pressure Humidity
    00:00 -1°C° 0.1 mm 3 mps 687 mmHg 84%
    01:00 0°C° 0.1 mm 3 mps 686 mmHg 86%
    02:00 0°C° 0.8 mm 3 mps 686 mmHg 88%
    03:00 -1°C° 0.8 mm 4 mps 685 mmHg 90%
    04:00 0°C° 0.8 mm 4 mps 684 mmHg 92%
    05:00 0°C° 1.7 mm 4 mps 684 mmHg 92%
    06:00 0°C° 1.7 mm 4 mps 683 mmHg 92%
    07:00 +1°C° 1.7 mm 4 mps 683 mmHg 92%
    08:00 +1°C° 1.7 mm 4 mps 683 mmHg 94%
    09:00 +3°C° 1.7 mm 4 mps 684 mmHg 95%
    10:00 +3°C° 1.7 mm 4 mps 684 mmHg 96%
    11:00 +4°C° 1 mm 4 mps 684 mmHg 96%
    12:00 +3°C° 1 mm 5 mps 684 mmHg 96%
    13:00 +5°C° 1 mm 5 mps 684 mmHg 96%
    14:00 +5°C° 0.8 mm 5 mps 683 mmHg 96%
    15:00 +5°C° 0.8 mm 5 mps 683 mmHg 97%
    16:00 +5°C° 0.8 mm 4 mps 683 mmHg 97%
    17:00 +5°C° 1.8 mm 4 mps 683 mmHg 97%
    18:00 +5°C° 1.8 mm 3 mps 683 mmHg 98%
    19:00 +5°C° 1.8 mm 3 mps 683 mmHg 98%
    20:00 +5°C° 2.2 mm 3 mps 683 mmHg 98%
    21:00 +5°C° 2.2 mm 3 mps 683 mmHg 98%
    22:00 +7°C° 2.2 mm 3 mps 683 mmHg 98%
    23:00 +6°C° 2.2 mm 4 mps 683 mmHg 98%
    Show more